Погода в Мерке

Казахстан     42°52′20″N   73°11′24″E
темп.,
°C
ветер,
м/с
пор.,
м/с
влажн.,
%
обл.,
%
осадки,
мм/ч
давл.,
гПа
погр.,
м
2 марта, вт
вт200:000ю65400 0.0 102340
03:000ю76390 0.0 102253
06:000ю65390 0.0 102246
09:00+1ю54440 0.0 102347
12:00+4всв03500 0.0 1022368
15:00+3ссз12660 0.0 1021274
18:00+1з016814 0.0 1022114
21:00−1юз1180100 0.3 102541
3 марта, ср
ср300:00−3ю127487 0.3 102633
03:00−2ююв1274100 0.0 102649
06:00−3вюв0183100 0.0 102642
09:00−3всв1188100 0.0 1026106
12:00−3ссв2295100 0.1 1025195
15:00−3ссв3397100 0.2 1024172
18:00−3всв2297100 0.6 1024155
21:00−2юв2384100 0.2 102572
4 марта, чт
чт400:00−3ю127281 0.2 102434
03:00−3ююв127129 0.0 102323
06:00−4ююв227323 0.0 102330
09:00−2юв23733 0.0 1023114
12:00+1св22769 0.0 1022322
15:00+3св337382 0.0 1020403
18:00+2вюв246955 0.0 1020142
21:00+1ю66490 0.0 101976
5 марта, пт
пт500:00+2ююз794721 0.0 1018195
03:00−2сз478971 0.1 1022382
06:00−4зсз579683 3.7 1027495
09:00−5св2396100 2.7 1031258
12:00−4ссв3294100 4.1 1032333
15:00−4св3393100 0.4 1031345
18:00−3в339199 0.5 1029267
21:00−4ююв35597 0.0 102973
6 марта, сб
сб600:00−3ю44483 0.0 102849
03:00−2ю44410 0.0 102530
06:00−2ю44370 0.0 102330
09:000ю444448 0.0 102049
12:00+4в118065 0.0 101680
15:00+4св117790 0.0 1012139
18:00+2з227995 0.0 101229
21:00+1юз2259100 0.0 101424